Tracking 29932 objects as of 4-Dec-2024
HD Live streaming from Space Station
objects crossing your sky now

STARLINK-11084

Track STARLINK-11084 now!
10-day predictions
STARLINK-11084 is classified as:


NORAD ID: 59717
Int'l Code: 2024-088K
Perigee: 366.0 km
Apogee: 367.6 km
Inclination: 53.2 °
Period: 91.7 minutes
Semi major axis: 6737 km
RCS: Unknown
Launch date: May 10, 2024
Source: United States (US)
Launch site: AIR FORCE WESTERN TEST RANGE (AFWTR)
Your satellite tracking list
Your tracking list is empty




NASA's NSSDC Master Catalog

Two Line Element Set (TLE):
1 59717U 24088K   24338.59261386  .00002975  00000-0  29381-4 0  9991
2 59717  53.1564  79.1708 0001171  68.3489 291.7653 15.69728319 33735
Source of the keplerian elements: AFSPC